TimeCDT,TemperatureF,Dew PointF,Humidity,Sea Level PressureIn,VisibilityMPH,Wind Direction,Wind SpeedMPH,Gust SpeedMPH,PrecipitationIn,Events,Conditions,WindDirDegrees,DateUTC
12:58 AM,62.6,62.6,100,30.16,10.0,SSE,3.5,-,N/A,,Overcast,150,2013-10-30 05:58:00
1:58 AM,61.7,61.7,100,30.17,10.0,SE,2.3,-,N/A,,Mostly Cloudy,140,2013-10-30 06:58:00
2:58 AM,63.5,63.5,100,30.17,10.0,ESE,3.5,-,N/A,,Overcast,110,2013-10-30 07:58:00
3:58 AM,63.5,63.5,100,30.16,10.0,SE,4.6,-,N/A,,Overcast,130,2013-10-30 08:58:00
4:58 AM,64.2,64.2,100,30.17,10.0,South,4.6,-,N/A,,Overcast,180,2013-10-30 09:58:00
5:42 AM,64.4,64.4,100,30.17,10.0,SSW,6.9,-,N/A,,Heavy Drizzle,200,2013-10-30 10:42:00
5:51 AM,64.4,64.4,100,30.16,10.0,SSW,8.1,-,N/A,,Mostly Cloudy,200,2013-10-30 10:51:00
5:58 AM,63.9,63.9,100,30.16,10.0,SSW,8.1,-,0.00,,Mostly Cloudy,200,2013-10-30 10:58:00
6:58 AM,63.5,63.5,100,30.17,10.0,SSW,10.4,-,N/A,,Mostly Cloudy,200,2013-10-30 11:58:00
7:58 AM,63.5,63.5,100,30.18,10.0,SSW,6.9,-,N/A,,Mostly Cloudy,200,2013-10-30 12:58:00
8:58 AM,67.1,64.4,91,30.19,10.0,SSW,10.4,-,N/A,,Mostly Cloudy,210,2013-10-30 13:58:00
9:58 AM,71.4,62.4,73,30.18,10.0,SW,12.7,-,N/A,,Clear,220,2013-10-30 14:58:00
10:58 AM,75.2,62.4,64,30.16,10.0,SSW,10.4,-,N/A,,Clear,210,2013-10-30 15:58:00
11:58 AM,77.2,63.0,61,30.14,10.0,SSW,11.5,-,N/A,,Scattered Clouds,200,2013-10-30 16:58:00
12:58 PM,77.4,63.7,63,30.12,10.0,SSW,12.7,-,N/A,,Mostly Cloudy,200,2013-10-30 17:58:00
1:58 PM,75.9,63.7,66,30.09,10.0,South,10.4,-,N/A,,Scattered Clouds,190,2013-10-30 18:58:00
2:58 PM,76.5,63.5,64,30.06,10.0,SW,15.0,24.2,N/A,,Mostly Cloudy,220,2013-10-30 19:58:00
3:58 PM,74.7,62.6,66,30.06,10.0,South,9.2,-,N/A,,Partly Cloudy,190,2013-10-30 20:58:00
4:58 PM,73.9,60.6,63,30.06,10.0,South,6.9,-,N/A,,Clear,180,2013-10-30 21:58:00
5:58 PM,71.8,59.2,64,30.06,10.0,South,8.1,-,N/A,,Clear,190,2013-10-30 22:58:00
6:58 PM,70.3,59.0,67,30.05,10.0,SSE,5.8,-,N/A,,Clear,150,2013-10-30 23:58:00
7:58 PM,68.5,59.7,73,30.05,10.0,SE,3.5,-,N/A,,Clear,140,2013-10-31 00:58:00
8:58 PM,68.5,60.4,75,30.04,10.0,SE,5.8,-,N/A,,Clear,140,2013-10-31 01:58:00
9:58 PM,68.4,58.6,71,30.05,10.0,South,8.1,-,N/A,,Overcast,180,2013-10-31 02:58:00
10:58 PM,68.7,56.8,66,30.04,10.0,South,8.1,-,N/A,,Overcast,180,2013-10-31 03:58:00
11:58 PM,68.2,56.3,66,30.01,10.0,South,8.1,-,N/A,,Overcast,170,2013-10-31 04:58:00